#timestamp,LO_Frequency,Hit,StdDev 
1661497215.0,286046998.1,P
1661497215.9,286046998.1,P
1661497235.8,286046998.4,P
1661497255.6,286046998.6,Y
1661497275.5,286047002.6,P
1661497295.3,286047002.2,N
1661497315.1,286047002.7,N
1661497335.9,286047004.4,N
1661497355.7,286047004.2,N
1661497375.5,286047001.3,N
1661497395.4,286047004.3,N
1661497415.2,286047001.3,N
1661497435.1,286047004.0,N
1661497436.0,286047004.0,N
1661497455.8,286047001.4,N
1661497475.6,286047004.3,N
1661497495.5,286047003.5,N
1661497515.3,286047004.1,N
1661497535.1,286047001.3,N
1661497555.9,286047004.0,N
1661497575.7,286047004.4,N
1661497595.6,286047003.8,N
1661497615.4,286047004.2,N
1661497635.2,286047001.4,N
1661497655.1,286047001.6,N
1661497656.0,286047001.6,N
1661497675.8,286047001.6,N
1661497695.7,286047004.0,N
1661497715.5,286047004.4,N
1661497735.3,286047001.9,N
1661497755.2,286047002.7,N
1661497775.0,286046999.7,N
1661497775.9,286046999.7,N
1661497795.7,286046999.9,N
1661497815.6,286046999.8,N
1661497835.4,286047002.6,N
1661497855.3,286047002.1,N
1661497875.1,286047002.6,N
1661497876.0,286047002.6,N
1661497895.8,286047002.5,N
1661497915.7,286047001.7,N
1661497935.5,286047002.1,N
1661497955.3,286047002.1,N
1661497975.2,286047002.0,N
1661497995.0,286047000.2,N
1661497995.9,286047000.2,N
1661498015.8,286047000.1,N
1661498035.6,286047002.6,N
1661498055.4,286047002.1,N
1661498075.3,286047002.2,N
1661498095.1,286047001.6,N
1661498115.8,286047003.9,N
1661498135.7,286047003.6,N
1661498155.5,286047003.4,N
1661498175.4,286047003.8,N
1661498195.2,286047004.0,N
1661498215.0,286047005.5,Y
1661498215.9,286047005.5,P
1661498235.8,286047002.1,N
1661498255.6,286046999.7,N
1661498275.5,286047002.3,N
1661498295.3,286047002.4,N
1661498315.1,286047002.6,N
1661498335.9,286047000.2,N
1661498355.7,286047000.7,N
1661498375.5,286046998.6,N
1661498395.4,286046999.0,N
1661498415.2,286046998.9,N
1661498435.1,286047001.0,N
1661498436.0,286047001.0,N
1661498455.8,286047001.0,N
1661498475.6,286047000.9,N
1661498495.5,286047001.2,N
1661498515.3,286047001.1,N
1661498535.2,286046999.9,N
1661498555.9,286047002.6,N
1661498575.7,286047000.5,N
1661498595.6,286046998.4,N
1661498615.4,286046998.6,N
1661498635.2,286047001.0,N
1661498655.1,286047000.6,N
1661498656.0,286047000.6,N
1661498675.8,286047000.3,N
1661498695.7,286047001.0,N
1661498715.5,286047000.5,N
1661498735.3,286047000.4,N
1661498755.2,286047000.3,N
1661498775.0,286047001.6,N
1661498775.9,286047001.6,N
1661498795.8,286047000.1,N
1661498815.6,286047002.4,N
1661498835.4,286047000.5,N
1661498855.3,286046999.8,N
1661498875.1,286047000.2,N
1661498895.8,286047000.3,N
1661498915.7,286046998.1,N
1661498935.5,286047001.0,N
1661498955.4,286046998.2,N
1661498975.2,286047000.0,N
1661498995.0,286047000.0,N
1661498995.9,286047000.0,N
1661499015.8,286047000.0,N
1661499035.6,286047000.3,N
1661499055.4,286047000.3,N
1661499075.3,286047000.3,N
1661499095.1,286047000.1,N
1661499115.9,286047002.8,N
1661499135.7,286047002.2,N
1661499155.5,286046999.9,N
1661499175.4,286047000.9,N
1661499195.2,286047000.6,N
1661499215.0,286047000.2,N
1661499216.0,286047000.2,N
1661499235.8,286047000.7,N
1661499255.6,286046998.5,N
1661499275.5,286047000.8,N
1661499295.3,286047000.9,N
1661499315.1,286046998.6,N
1661499335.9,286047001.2,N
1661499355.7,286047001.0,N
1661499375.6,286047000.3,N
1661499395.4,286047000.2,N
1661499415.2,286047000.7,N
1661499435.1,286047001.2,N
1661499436.0,286047001.2,N
1661499455.8,286047000.8,N
1661499475.6,286047000.1,N
1661499495.5,286046999.7,N
1661499515.3,286047000.8,N
1661499535.2,286046998.5,N
1661499555.9,286047000.7,N
1661499575.7,286047000.8,N
1661499595.6,286047000.7,N
1661499615.4,286047000.7,N
1661499635.2,286046998.3,N
1661499655.1,286046996.5,Y
1661499656.0,286046996.5,P
1661499675.8,286046997.3,N
1661499695.7,286046996.5,N
1661499715.5,286046999.3,N
1661499735.3,286046998.1,N
1661499755.2,286047000.8,N
1661499775.0,286047000.4,N
1661499775.9,286047000.4,N
1661499795.8,286047000.4,N
1661499815.6,286047000.7,N
1661499835.4,286047000.5,N
1661499855.3,286047000.4,N
1661499875.1,286046999.9,N
1661499895.8,286047000.2,N
1661499915.7,286047001.0,N
1661499935.5,286047002.5,N
1661499955.3,286047001.6,N
1661499975.2,286047001.5,N
1661499995.0,286047002.6,N
1661499995.9,286047002.6,N
1661500015.8,286047011.9,Y
1661500035.6,286047002.0,P
1661500055.4,286047001.4,N
1661500075.3,286047004.0,P
1661500095.1,286047001.5,N
1661500115.9,286047001.3,N
1661500135.7,286047004.0,Y
1661500155.5,286047000.1,P
1661500175.4,286047002.8,P
1661500195.2,286047002.4,N
1661500215.0,286047002.4,N
1661500215.9,286047002.4,N
1661500235.8,286047000.3,N
1661500255.6,286047001.0,N
1661500275.5,286047000.8,N
1661500295.3,286046998.1,N
1661500315.1,286046998.4,N
1661500335.9,286046998.6,N
1661500355.7,286046998.4,N
1661500375.5,286046999.0,N
1661500395.4,286046998.8,N
1661500415.2,286046998.7,N
1661500435.1,286046999.5,N
1661500436.0,286046999.5,N
1661500455.8,286046997.7,N
1661500475.6,286046997.3,N
1661500495.5,286046998.0,N
1661500515.3,286046997.9,N
1661500535.1,286046995.1,N
1661500555.9,286046995.4,N
1661500575.7,286046996.1,N
1661500595.6,286046997.9,N
1661500615.4,286046998.0,N
1661500635.2,286046996.2,N
1661500655.1,286046995.6,N
1661500656.0,286046995.6,N
1661500675.8,286046995.2,N
1661500695.6,286046995.2,N
1661500715.5,286046995.0,N
1661500735.3,286046997.4,N
1661500755.2,286046995.6,N
1661500775.9,286046996.1,N
1661500795.7,286046996.3,N
